Overview Statistics Trail Chart Weather Telemetry Raw packets
 

This is the latest recevied weather packets stored in our database for station/object KD2FKI. If no packets are shown the sender has not sent any weather packets the latest 10 day(s).

<< 37 38 39 40 41 42 43 >>
Time Temp. Humidity Pressure Rain* Wind** Luminosity Snow
1777627245 6.11° C 86% - 0 mm - - -
1777626655 5.56° C 88% - 0 mm - - -
1777626043 5° C 91% - 0 mm - - -
1777625432 5° C 90% - 0 mm - - -
1777624840 5° C 88% - 0 mm - - -
1777624230 5.56° C 87% - 0 mm - - -
1777623638 6.11° C 85% - 0 mm - - -
1777623045 6.11° C 85% - 0 mm - - -
1777622435 6.11° C 85% - 0 mm - - -
1777621850 5.56° C 90% - 0 mm - - -
1777621233 3.89° C 97% - 0 mm - - -
1777620641 3.89° C 97% - 0 mm - - -
1777620030 3.89° C 97% - 0 mm - - -
1777619441 3.89° C 97% - 0 mm - - -
1777618865 3.89° C 97% - 0 mm - - -
1777618236 3.89° C 97% - 0 mm - - -
1777617659 3.89° C 96% - 0 mm - - -
1777617033 3.89° C 94% - 0 mm - - -
1777616444 4.44° C 92% - 0 mm - - -
1777615834 4.44° C 91% - 0 mm - - -
1777615241 5° C 90% - 0 mm - - -
1777614647 5° C 88% - 0 mm - - -
1777614038 5° C 88% - 0 mm - - -
1777613444 5.56° C 87% - 0 mm - - -
1777612836 5.56° C 87% - 0 mm - - -

* Rain latest hour (hover to see other rain measurements)
** Current wind speed in m/s (hover to see current wind gust speed)